User: anonymous   Login
Location: Invercargill
(46.4000°S, 168.3500°E)
Time: 20:46:41
(UTC+13:00)
Language:

Cosmos 2322 - Orbit

View from above orbital plane
View from above orbital plane
View from above satellite
View from above satellite

Ground track
Ground track

The orbit data is extracted from the following two-line orbital elements,

1 23704U 95058A   19295.72806229 -.00000153 +00000-0 -55898-4 0  9995
2 23704 070.9855 046.3479 0011839 240.9690 119.0246 14.13403712236805
Epoch (UTC): 22 October 2019 17:28:24
Eccentricity: 0.0011839
inclination: 70.9855°
perigee height: 839 km
apogee height: 856 km
right ascension of ascending node: 46.3479°
argument of perigee: 240.9690°
revolutions per day: 14.13403712
mean anomaly at epoch: 119.0246°
orbit number at epoch: 23680

The dashed part of the orbit path shows where the satellite is in the earth's shadow,  

DLR